Regional Weather Roundup
Issued by NWS New Orleans/Baton Rouge, LA

Home | Current Version | Previous Version | Graphics & Text | Print | Product List | Glossary Off
Versions: 1 2 3 4 5 6 7 8 9 10 11 12 13 14 15 16 17 18 19 20 21 22 23 24 25 26 27 28 29 30 31 32 33 34 35 36 37 38 39 40 41 42 43 44 45 46 47 48 49 50

479
ASUS44 KLIX 220610
RWRLIX
NEW ORLEANS REGIONAL WEATHER ROUNDUP
NATIONAL WEATHER SERVICE NEW ORLEANS LA
1200 AM CST MON DEC 22 2014

NOTE: "FAIR" INDICATES FEW OR NO CLOUDS BELOW 12,000 FEET WITH NO
      SIGNIFICANT WEATHER AND/OR OBSTRUCTIONS TO VISIBILITY.
      SKY/WX - SKY CONDITION AND SIGNIFICANT WEATHER.
      TMP - AIR TEMPERATURE.     DP    - DEWPOINT TEMPERATURE.
      RH  - RELATIVE HUMIDITY.   PRES  - PRESSURE.
      HI  - HEAT INDEX.          WCI   - WIND CHILL INDEX.

*  THESE STATIONS ARE NOT NWS OR FAA STATIONS AND ARE NOT UNDER
   NWS QUALITY CONTROL.

LAZ038-040-048-061>063-065>067-069-220700-
SOUTHEAST LOUISIANA

CITY           SKY/WX    TMP DP  RH WIND       PRES   REMARKS
N.O. AUDUBON     N/A     60  56  87 MISG        N/A
6HR MIN TEMP:  55; 6HR MAX TEMP:  60;

N.O. INTL ARPT MOCLDY    58  54  86 NE8       29.92F FOG
6HR MIN TEMP:  54; 6HR MAX TEMP:  58;

N.O. LAKEFRONT CLOUDY    58  55  90 E8        29.94F FOG
6HR MIN TEMP:  56; 6HR MAX TEMP:  59;

N.O. DOWNTOWN* CLOUDY    57  52  82 NE3       29.94F
6HR MIN TEMP:  55; 6HR MAX TEMP:  57;

SLIDELL        CLOUDY    56  53  90 CALM      29.94F FOG
6HR MIN TEMP:  51; 6HR MAX TEMP:  56;

BATON ROUGE    CLOUDY    52  50  93 E6        29.93F FOG
6HR MIN TEMP:  50; 6HR MAX TEMP:  56;

BOOTHVILLE     FOG       58  58 100 NE6       29.92F VSB 3/4
6HR MIN TEMP:  56; 6HR MAX TEMP:  59;

BELLE CHASSE   CLOUDY    58  56  93 NE7       29.93F FOG
6HR MIN TEMP:  55; 6HR MAX TEMP:  58;

BOGALUSA*        N/A     55  52  89 CALM      29.96F FOG
6HR MIN TEMP:  54; 6HR MAX TEMP:  59;

GALLIANO*      CLOUDY    58  57  97 MISG      29.92F
6HR MIN TEMP:  57; 6HR MAX TEMP:  58;

NEW ROADS*     CLOUDY    53  51  92 SE6       29.93F
6HR MIN TEMP:  51; 6HR MAX TEMP:  55;

GONZALES*      CLOUDY    55  55  99 CALM      29.94F FOG
6HR MIN TEMP:  49; 6HR MAX TEMP:  55;

HAMMOND*       NOT AVBL
HOUMA*         CLOUDY    55  55  99 N3        29.93F FOG
6HR MIN TEMP:  52; 6HR MAX TEMP:  56;

PORT FOURCHON* CLOUDY    61  59  94 NE8       29.95R FOG

$$

MSZ070-080>082-220700-
SOUTHERN MISSISSIPPI

CITY           SKY/WX    TMP DP  RH WIND       PRES   REMARKS
MCCOMB         CLOUDY    52  50  93 SE8       29.95S FOG
6HR MIN TEMP:  51; 6HR MAX TEMP:  56;

GULFPORT       CLOUDY    56  55  97 NE5       29.94F FOG
6HR MIN TEMP:  55; 6HR MAX TEMP:  57;

BILOXI         CLOUDY    56  56 100 NE7       29.95F
6HR MIN TEMP:  56; 6HR MAX TEMP:  57;

PASCAGOULA     CLOUDY    56  54  93 NE5       29.97F
6HR MIN TEMP:  56; 6HR MAX TEMP:  57;


$$

COASTAL OBSERVATIONS
LAKE AND NEARSHORE STATIONS

STATION/POSITION TIME  TEMP    WIND        PRES    WAVE
                       AIR SEA DIR/SP/G            HT/PER
                 (UTC) (F)     (DEG/KT/KT) (MB)    (FT/S)
PASCAGOULA       0600   56      50/  9/ 12 1014.0
WAVELAND YACHT   0600   55      70/  5/  6 1013.3
GRAND ISLE       0600   60 59   80/  9/ 13 1013.2
SOUTHWEST PASS   0600   62                 1012.4
NEW CANAL        0600   57 56   70/  5/  6 1014.1
SHELL BEACH      0600   57 57   60/ 11/ 12 1013.4

OFFSHORE STATIONS

STATION/POSITION TIME  TEMP    WIND        PRES    WAVE
                       AIR SEA DIR/SP/G            HT/PER
                 (UTC) (F)     (DEG/KT/KT) (MB)    (FT/S)
64 S DAUPHIN ISL 0600   70 74  130/ 14/ 16 1013.6    3/ 4

$$




USA.gov is the U.S. government's official web portal to all federal, state and local government web resources and services.